COSMOS 2499 DEB

Satellite information

Favourite Embed

Satellite Type and Status

DEBRISIN ORBIT

Key statistics

Satellite COSMOS 2499 DEB at a glance.

Uptime

4064

Days in orbit

Revolutions

≈ 12.9

Per day

Orbit

LEO

Low Earth Orbit

Inclination

82.3

Latest

Satellite identification and parameters

Extended collection of information and parameters for COSMOS 2499 DEB.

Object identification

Identified? True

Debris? True

Object name: COSMOS 2499 DEB

International designator: 2014-028AU

Object number (NORAD): 55732

Object ID (CCSDS): 55732

Country: COMMONWEALTH OF INDEPENDENT STATES (CIS)

Current information (Y/N): Y

RCS size: SMALL

Orbital parameters

Period: 111.98 minutes

Inclination: 82.3118 deg

SMA: 7695.801 km

Apoapsis: 1486.207 km

Periapsis: 1149.125 km

RAAN: 122.5018 deg

Eccentricy: 0.0219004

Argument of periapsis: 89.9414 deg

Mean anomaly: 272.6784 deg

Mean motion: 12.85943826 rev/day

Mean motion (dot): 0.00007597 rev/day2

B* drag term: 0.027673 1/REarth

Two-line elements (TLE)

Creation date: July 3, 2025, 11:06 p.m.

Reference frame: TEME

Reference center: EARTH

Epoch: July 3, 2025, 2:53 a.m. UTC

TLE line 0: 0 COSMOS 2499 DEB

TLE line 1: 1 55732U 14028AU 25184.12060751 .00007597 00000-0 27673-1 0 9993

TLE line 2: 2 55732 82.3118 122.5018 0219004 89.9414 272.6784 12.85943826114579

Live tracking on map

Real-time ground track for satellite COSMOS 2499 DEB.

In-orbit conjunctions

A list of the most updated potential collisions computed for object COSMOS 2499 DEB.

Target Orbit TCA Probability of collision Miss distance Type
COSMOS 979 LEO 2025-06-16 07:26:34 0.0001161128 160.0 (m) PAYLOAD

Associated space launch

Classified payload for Russia

COSMOS 2499 DEB was lifted into orbit during the mission ‘Rokot / Briz-KM | 3x Strela-3M (Kosmos 2496, Kosmos 2497, Kosmos 2498) & Kosmos 2499’, on board a Rokot/Briz-KM space rocket.

The launch took place on May 23, 2014, 5:27 a.m. from 133/3 (133L).

For more information about the launch, click the button.

Launch to space Rokot / Briz-KM | 3x Strela-3M (Kosmos 2496, Kosmos 2497, Kosmos 2498) & Kosmos 2499
Rokot / Briz-KM | 3x Strela-3M (Kosmos 2496, Kosmos 2497, Kosmos 2498) & Kosmos 2499

Agency: N/A

Status: Launch Successful

Launch date: May 23, 2014, 5:27 a.m. UTC

Rocket: Rokot/Briz-KM

Launch pad: 133/3 (133L)

Location: Plesetsk Cosmodrome, Russian Federation

...

Latest news about this satellite

There are no fresh news available about this satellite. Check back as we update our databases every day.


Newsletter sign-up

Weekly statistics, charts and insights to help you stay on top of the space industry.